Year,Month,Day,Hour,Minute,Value (Times are PST for temperature in C)
2008,06,28,00,00,14.30
2008,06,28,00,01,14.30
2008,06,28,00,02,14.30
2008,06,28,00,03,14.30
2008,06,28,00,04,14.30
2008,06,28,00,05,14.30
2008,06,28,00,06,14.30
2008,06,28,00,07,14.30
2008,06,28,00,08,14.30
2008,06,28,00,09,14.20
2008,06,28,00,10,14.20
2008,06,28,00,11,14.20
2008,06,28,00,12,14.20
2008,06,28,00,13,14.20
2008,06,28,00,14,14.20
2008,06,28,00,15,14.20
2008,06,28,00,16,14.20
2008,06,28,00,17,14.20
2008,06,28,00,18,14.20
2008,06,28,00,19,14.20
2008,06,28,00,20,14.20
2008,06,28,00,21,14.20
2008,06,28,00,22,14.20
2008,06,28,00,23,14.20
2008,06,28,00,24,14.20
2008,06,28,00,25,14.20
2008,06,28,00,26,14.20
2008,06,28,00,27,14.10
2008,06,28,00,28,14.10
2008,06,28,00,29,14.10
2008,06,28,00,30,14.10
2008,06,28,00,31,14.10
2008,06,28,00,32,14.10
2008,06,28,00,33,14.10
2008,06,28,00,34,14.10
2008,06,28,00,35,14.10
2008,06,28,00,36,14.10
2008,06,28,00,37,14.10
2008,06,28,00,38,14.10
2008,06,28,00,39,14.10
2008,06,28,00,40,14.10
2008,06,28,00,41,14.10
2008,06,28,00,42,14.00
2008,06,28,00,43,14.00
2008,06,28,00,44,14.00
2008,06,28,00,45,14.00
2008,06,28,00,46,14.00
2008,06,28,00,47,14.00
2008,06,28,00,48,14.00
2008,06,28,00,49,14.00
2008,06,28,00,50,14.00
2008,06,28,00,51,14.00
2008,06,28,00,52,14.00
2008,06,28,00,53,14.00
2008,06,28,00,54,14.00
2008,06,28,00,55,14.00
2008,06,28,00,56,14.00
2008,06,28,00,57,14.00
2008,06,28,00,58,14.00
2008,06,28,00,59,14.00
2008,06,28,01,00,14.00
2008,06,28,01,01,13.90
2008,06,28,01,02,13.90
2008,06,28,01,03,13.90
2008,06,28,01,04,13.90
2008,06,28,01,05,13.90
2008,06,28,01,06,13.90
2008,06,28,01,07,13.90
2008,06,28,01,08,13.90
2008,06,28,01,09,13.90
2008,06,28,01,10,13.90
2008,06,28,01,11,13.90
2008,06,28,01,12,13.90
2008,06,28,01,13,13.90
2008,06,28,01,14,13.90
2008,06,28,01,15,13.90
2008,06,28,01,16,13.90
2008,06,28,01,17,13.90
2008,06,28,01,18,13.90
2008,06,28,01,19,13.90
2008,06,28,01,20,13.80
2008,06,28,01,21,13.80
2008,06,28,01,22,13.80
2008,06,28,01,23,13.80
2008,06,28,01,24,13.80
2008,06,28,01,25,13.80
2008,06,28,01,26,13.80
2008,06,28,01,27,13.80
2008,06,28,01,28,13.80
2008,06,28,01,29,13.80
2008,06,28,01,30,13.80
2008,06,28,01,31,13.80
2008,06,28,01,32,13.80
2008,06,28,01,33,13.80
2008,06,28,01,34,13.80
2008,06,28,01,35,13.80
2008,06,28,01,36,13.80
2008,06,28,01,37,13.80
2008,06,28,01,38,13.80
2008,06,28,01,39,13.80
2008,06,28,01,40,13.80
2008,06,28,01,41,13.80
2008,06,28,01,42,13.80
2008,06,28,01,43,13.80
2008,06,28,01,44,13.80
2008,06,28,01,45,13.80
2008,06,28,01,46,13.70
2008,06,28,01,47,13.70
2008,06,28,01,48,13.70
2008,06,28,01,49,13.70
2008,06,28,01,50,13.70
2008,06,28,01,51,13.70
2008,06,28,01,52,13.70
2008,06,28,01,53,13.70
2008,06,28,01,54,13.70
2008,06,28,01,55,13.70
2008,06,28,01,56,13.70
2008,06,28,01,57,13.70
2008,06,28,01,58,13.70
2008,06,28,01,59,13.70
2008,06,28,02,00,13.70
2008,06,28,02,01,13.70
2008,06,28,02,02,13.70
2008,06,28,02,03,13.70
2008,06,28,02,04,13.70
2008,06,28,02,05,13.70
2008,06,28,02,06,13.70
2008,06,28,02,07,13.70
2008,06,28,02,08,13.70
2008,06,28,02,09,13.70
2008,06,28,02,10,13.70
2008,06,28,02,11,13.70
2008,06,28,02,12,13.70
2008,06,28,02,13,13.70
2008,06,28,02,14,13.70
2008,06,28,02,15,13.70
2008,06,28,02,16,13.70
2008,06,28,02,17,13.60
2008,06,28,02,18,13.60
2008,06,28,02,19,13.60
2008,06,28,02,20,13.60
2008,06,28,02,21,13.60
2008,06,28,02,22,13.60
2008,06,28,02,23,13.60
2008,06,28,02,24,13.60
2008,06,28,02,25,13.60
2008,06,28,02,26,13.60
2008,06,28,02,27,13.60
2008,06,28,02,28,13.60
2008,06,28,02,29,13.60
2008,06,28,02,30,13.60
2008,06,28,02,31,13.60
2008,06,28,02,32,13.60
2008,06,28,02,33,13.60
2008,06,28,02,34,13.50
2008,06,28,02,35,13.50
2008,06,28,02,36,13.50
2008,06,28,02,37,13.50
2008,06,28,02,38,13.50
2008,06,28,02,39,13.50
2008,06,28,02,40,13.50
2008,06,28,02,41,13.50
2008,06,28,02,42,13.50
2008,06,28,02,43,13.50
2008,06,28,02,44,13.50
2008,06,28,02,45,13.50
2008,06,28,02,46,13.50
2008,06,28,02,47,13.50
2008,06,28,02,48,13.50
2008,06,28,02,49,13.50
2008,06,28,02,50,13.50
2008,06,28,02,51,13.50
2008,06,28,02,52,13.50
2008,06,28,02,53,13.50
2008,06,28,02,54,13.50
2008,06,28,02,55,13.50
2008,06,28,02,56,13.50
2008,06,28,02,57,13.50
2008,06,28,02,58,13.50
2008,06,28,02,59,13.50
2008,06,28,03,00,13.50
2008,06,28,03,01,13.50
2008,06,28,03,02,13.50
2008,06,28,03,03,13.50
2008,06,28,03,04,13.50
2008,06,28,03,05,13.50
2008,06,28,03,06,13.50
2008,06,28,03,07,13.50
2008,06,28,03,08,13.50
2008,06,28,03,09,13.50
2008,06,28,03,10,13.50
2008,06,28,03,11,13.50
2008,06,28,03,12,13.50
2008,06,28,03,13,13.50
2008,06,28,03,14,13.50
2008,06,28,03,15,13.50
2008,06,28,03,16,13.50
2008,06,28,03,17,13.50
2008,06,28,03,18,13.50
2008,06,28,03,19,13.50
2008,06,28,03,20,13.50
2008,06,28,03,21,13.50
2008,06,28,03,22,13.50
2008,06,28,03,23,13.50
2008,06,28,03,24,13.50
2008,06,28,03,25,13.50
2008,06,28,03,26,13.50
2008,06,28,03,27,13.50
2008,06,28,03,28,13.50
2008,06,28,03,29,13.50
2008,06,28,03,30,13.50
2008,06,28,03,31,13.50
2008,06,28,03,32,13.50
2008,06,28,03,33,13.50
2008,06,28,03,34,13.50
2008,06,28,03,35,13.50
2008,06,28,03,36,13.50
2008,06,28,03,37,13.50
2008,06,28,03,38,13.50
2008,06,28,03,39,13.50
2008,06,28,03,40,13.50
2008,06,28,03,41,13.50
2008,06,28,03,42,13.40
2008,06,28,03,43,13.40
2008,06,28,03,44,13.40
2008,06,28,03,45,13.40
2008,06,28,03,46,13.40
2008,06,28,03,47,13.40
2008,06,28,03,48,13.40
2008,06,28,03,49,13.40
2008,06,28,03,50,13.40
2008,06,28,03,51,13.40
2008,06,28,03,52,13.40
2008,06,28,03,53,13.40
2008,06,28,03,54,13.40
2008,06,28,03,55,13.40
2008,06,28,03,56,13.40
2008,06,28,03,57,13.40
2008,06,28,03,58,13.40
2008,06,28,03,59,13.40
2008,06,28,04,00,13.40
2008,06,28,04,01,13.40
2008,06,28,04,02,13.40
2008,06,28,04,03,13.40
2008,06,28,04,04,13.40
2008,06,28,04,05,13.40
2008,06,28,04,06,13.40
2008,06,28,04,07,13.40
2008,06,28,04,08,13.40
2008,06,28,04,09,13.40
2008,06,28,04,10,13.40
2008,06,28,04,11,13.40
2008,06,28,04,12,13.40
2008,06,28,04,13,13.40
2008,06,28,04,14,13.40
2008,06,28,04,15,13.40
2008,06,28,04,16,13.40
2008,06,28,04,17,13.40
2008,06,28,04,18,13.40
2008,06,28,04,19,13.50
2008,06,28,04,20,13.50
2008,06,28,04,21,13.50
2008,06,28,04,22,13.50
2008,06,28,04,23,13.50
2008,06,28,04,24,13.50
2008,06,28,04,25,13.50
2008,06,28,04,26,13.50
2008,06,28,04,27,13.50
2008,06,28,04,28,13.50
2008,06,28,04,29,13.50
2008,06,28,04,30,13.50
2008,06,28,04,31,13.50
2008,06,28,04,32,13.50
2008,06,28,04,33,13.50
2008,06,28,04,34,13.50
2008,06,28,04,35,13.50
2008,06,28,04,36,13.50
2008,06,28,04,37,13.50
2008,06,28,04,38,13.40
2008,06,28,04,39,13.40
2008,06,28,04,40,13.40
2008,06,28,04,41,13.40
2008,06,28,04,42,13.40
2008,06,28,04,43,13.40
2008,06,28,04,44,13.40
2008,06,28,04,45,13.40
2008,06,28,04,46,13.40
2008,06,28,04,47,13.40
2008,06,28,04,48,13.40
2008,06,28,04,49,13.40
2008,06,28,04,50,13.40
2008,06,28,04,51,13.40
2008,06,28,04,52,13.40
2008,06,28,04,53,13.40
2008,06,28,04,54,13.40
2008,06,28,04,55,13.40
2008,06,28,04,56,13.40
2008,06,28,04,57,13.40
2008,06,28,04,58,13.40
2008,06,28,04,59,13.40
2008,06,28,05,00,13.40
2008,06,28,05,01,13.40
2008,06,28,05,02,13.40
2008,06,28,05,03,13.40
2008,06,28,05,04,13.40
2008,06,28,05,05,13.40
2008,06,28,05,06,13.50
2008,06,28,05,07,13.50
2008,06,28,05,08,13.50
2008,06,28,05,09,13.50
2008,06,28,05,10,13.50
2008,06,28,05,11,13.50
2008,06,28,05,12,13.50
2008,06,28,05,13,13.50
2008,06,28,05,14,13.50
2008,06,28,05,15,13.50
2008,06,28,05,16,13.50
2008,06,28,05,17,13.50
2008,06,28,05,18,13.50
2008,06,28,05,19,13.50
2008,06,28,05,20,13.60
2008,06,28,05,21,13.60
2008,06,28,05,22,13.60
2008,06,28,05,23,13.60
2008,06,28,05,24,13.60
2008,06,28,05,25,13.60
2008,06,28,05,26,13.60
2008,06,28,05,27,13.60
2008,06,28,05,28,13.60
2008,06,28,05,29,13.60
2008,06,28,05,30,13.60
2008,06,28,05,31,13.60
2008,06,28,05,32,13.60
2008,06,28,05,33,13.60
2008,06,28,05,34,13.60
2008,06,28,05,35,13.60
2008,06,28,05,36,13.60
2008,06,28,05,37,13.60
2008,06,28,05,38,13.60
2008,06,28,05,39,13.60
2008,06,28,05,40,13.60
2008,06,28,05,41,13.60
2008,06,28,05,42,13.60
2008,06,28,05,43,13.60
2008,06,28,05,44,13.60
2008,06,28,05,45,13.60
2008,06,28,05,46,13.60
2008,06,28,05,47,13.60
2008,06,28,05,48,13.60
2008,06,28,05,49,13.60
2008,06,28,05,50,13.60
2008,06,28,05,51,13.60
2008,06,28,05,52,13.60
2008,06,28,05,53,13.70
2008,06,28,05,54,13.70
2008,06,28,05,55,13.70
2008,06,28,05,56,13.70
2008,06,28,05,57,13.70
2008,06,28,05,58,13.70
2008,06,28,05,59,13.70
2008,06,28,06,00,13.70
2008,06,28,06,01,13.70
2008,06,28,06,02,13.70
2008,06,28,06,03,13.70
2008,06,28,06,04,13.70
2008,06,28,06,05,13.70
2008,06,28,06,06,13.70
2008,06,28,06,07,13.70
2008,06,28,06,08,13.70
2008,06,28,06,09,13.70
2008,06,28,06,10,13.70
2008,06,28,06,11,13.70
2008,06,28,06,12,13.70
2008,06,28,06,13,13.70
2008,06,28,06,14,13.70
2008,06,28,06,15,13.70
2008,06,28,06,16,13.70
2008,06,28,06,17,13.80
2008,06,28,06,18,13.80
2008,06,28,06,19,13.80
2008,06,28,06,20,13.80
2008,06,28,06,21,13.80
2008,06,28,06,22,13.80
2008,06,28,06,23,13.80
2008,06,28,06,24,13.80
2008,06,28,06,25,13.80
2008,06,28,06,26,13.80
2008,06,28,06,27,13.80
2008,06,28,06,28,13.80
2008,06,28,06,29,13.80
2008,06,28,06,30,13.80
2008,06,28,06,31,13.80
2008,06,28,06,32,13.90
2008,06,28,06,33,13.90
2008,06,28,06,34,13.90
2008,06,28,06,35,13.90
2008,06,28,06,36,13.90
2008,06,28,06,37,13.90
2008,06,28,06,38,13.90
2008,06,28,06,39,13.90
2008,06,28,06,40,13.90
2008,06,28,06,41,13.90
2008,06,28,06,42,13.90
2008,06,28,06,43,14.00
2008,06,28,06,44,14.10
2008,06,28,06,45,14.10
2008,06,28,06,46,14.20
2008,06,28,06,47,14.20
2008,06,28,06,48,14.20
2008,06,28,06,49,14.20
2008,06,28,06,50,14.20
2008,06,28,06,51,14.30
2008,06,28,06,52,14.30
2008,06,28,06,53,14.40
2008,06,28,06,54,14.40
2008,06,28,06,55,14.40
2008,06,28,06,56,14.40
2008,06,28,06,57,14.40
2008,06,28,06,58,14.50
2008,06,28,06,59,14.60
2008,06,28,07,00,14.60
2008,06,28,07,01,14.60
2008,06,28,07,02,14.70
2008,06,28,07,03,14.70
2008,06,28,07,04,14.70
2008,06,28,07,05,14.80
2008,06,28,07,06,14.80
2008,06,28,07,07,14.80
2008,06,28,07,08,14.80
2008,06,28,07,09,14.80
2008,06,28,07,10,14.90
2008,06,28,07,11,14.90
2008,06,28,07,12,15.00
2008,06,28,07,13,15.00
2008,06,28,07,14,15.00
2008,06,28,07,15,15.00
2008,06,28,07,16,15.00
2008,06,28,07,17,15.00
2008,06,28,07,18,15.00
2008,06,28,07,19,15.00
2008,06,28,07,20,15.00
2008,06,28,07,21,15.00
2008,06,28,07,22,15.00
2008,06,28,07,23,15.00
2008,06,28,07,24,15.00
2008,06,28,07,25,15.00
2008,06,28,07,26,15.00
2008,06,28,07,27,15.10
2008,06,28,07,28,15.20
2008,06,28,07,29,15.30
2008,06,28,07,30,15.30
2008,06,28,07,31,15.30
2008,06,28,07,32,15.30
2008,06,28,07,33,15.40
2008,06,28,07,34,15.40
2008,06,28,07,35,15.50
2008,06,28,07,36,15.50
2008,06,28,07,37,15.60
2008,06,28,07,38,15.60
2008,06,28,07,39,15.60
2008,06,28,07,40,15.70
2008,06,28,07,41,15.70
2008,06,28,07,42,15.70
2008,06,28,07,43,15.80
2008,06,28,07,44,15.80
2008,06,28,07,45,15.80
2008,06,28,07,46,15.80
2008,06,28,07,47,15.90
2008,06,28,07,48,15.90
2008,06,28,07,49,15.90
2008,06,28,07,50,15.90
2008,06,28,07,51,15.90
2008,06,28,07,52,16.00
2008,06,28,07,53,16.00
2008,06,28,07,54,16.00
2008,06,28,07,55,16.10
2008,06,28,07,56,16.10
2008,06,28,07,57,16.10
2008,06,28,07,58,16.10
2008,06,28,07,59,16.10
2008,06,28,08,00,16.10
2008,06,28,08,01,16.20
2008,06,28,08,02,16.20
2008,06,28,08,03,16.20
2008,06,28,08,04,16.30
2008,06,28,08,05,16.30
2008,06,28,08,06,16.30
2008,06,28,08,07,16.30
2008,06,28,08,08,16.30
2008,06,28,08,09,16.30
2008,06,28,08,10,16.40
2008,06,28,08,11,16.40
2008,06,28,08,12,16.40
2008,06,28,08,13,16.40
2008,06,28,08,14,16.40
2008,06,28,08,15,16.50
2008,06,28,08,16,16.50
2008,06,28,08,17,16.50
2008,06,28,08,18,16.50
2008,06,28,08,19,16.60
2008,06,28,08,20,16.60
2008,06,28,08,21,16.60
2008,06,28,08,22,16.60
2008,06,28,08,23,16.70
2008,06,28,08,24,16.70
2008,06,28,08,25,16.70
2008,06,28,08,26,16.70
2008,06,28,08,27,16.80
2008,06,28,08,28,16.80
2008,06,28,08,29,16.80
2008,06,28,08,30,16.80
2008,06,28,08,31,16.90
2008,06,28,08,32,16.90
2008,06,28,08,33,16.90
2008,06,28,08,34,16.90
2008,06,28,08,35,17.00
2008,06,28,08,36,17.00
2008,06,28,08,37,17.00
2008,06,28,08,38,17.00
2008,06,28,08,39,17.00
2008,06,28,08,40,17.00
2008,06,28,08,41,17.10
2008,06,28,08,42,17.10
2008,06,28,08,43,17.10
2008,06,28,08,44,17.10
2008,06,28,08,45,17.10
2008,06,28,08,46,17.10
2008,06,28,08,47,17.20
2008,06,28,08,48,17.20
2008,06,28,08,49,17.20
2008,06,28,08,50,17.30
2008,06,28,08,51,17.30
2008,06,28,08,52,17.30
2008,06,28,08,53,17.30
2008,06,28,08,54,17.40
2008,06,28,08,55,17.40
2008,06,28,08,56,17.40
2008,06,28,08,57,17.50
2008,06,28,08,58,17.50
2008,06,28,08,59,17.50
2008,06,28,09,00,17.60
2008,06,28,09,01,17.60
2008,06,28,09,02,17.60
2008,06,28,09,03,17.60
2008,06,28,09,04,17.70
2008,06,28,09,05,17.70
2008,06,28,09,06,17.70
2008,06,28,09,07,17.80
2008,06,28,09,08,17.80
2008,06,28,09,09,17.90
2008,06,28,09,10,17.90
2008,06,28,09,11,18.00
2008,06,28,09,12,18.10
2008,06,28,09,13,18.10
2008,06,28,09,14,18.20
2008,06,28,09,15,18.20
2008,06,28,09,16,18.30
2008,06,28,09,17,18.40
2008,06,28,09,18,18.40
2008,06,28,09,19,18.50
2008,06,28,09,20,18.60
2008,06,28,09,21,18.70
2008,06,28,09,22,18.70
2008,06,28,09,23,18.80
2008,06,28,09,24,18.80
2008,06,28,09,25,18.80
2008,06,28,09,26,18.90
2008,06,28,09,27,19.00
2008,06,28,09,28,19.00
2008,06,28,09,29,19.10
2008,06,28,09,30,19.10
2008,06,28,09,31,19.20
2008,06,28,09,32,19.20
2008,06,28,09,33,19.30
2008,06,28,09,34,19.30
2008,06,28,09,35,19.40
2008,06,28,09,36,19.40
2008,06,28,09,37,19.50
2008,06,28,09,38,19.60
2008,06,28,09,39,19.70
2008,06,28,09,40,19.70
2008,06,28,09,41,19.80
2008,06,28,09,42,19.90
2008,06,28,09,43,19.90
2008,06,28,09,44,19.90
2008,06,28,09,45,20.00
2008,06,28,09,46,20.00
2008,06,28,09,47,20.00
2008,06,28,09,48,20.10
2008,06,28,09,49,20.10
2008,06,28,09,50,20.10
2008,06,28,09,51,20.20
2008,06,28,09,52,20.20
2008,06,28,09,53,20.10
2008,06,28,09,54,20.20
2008,06,28,09,55,20.10
2008,06,28,09,56,20.10
2008,06,28,09,57,20.10
2008,06,28,09,58,20.20
2008,06,28,09,59,20.20
2008,06,28,10,00,20.20
2008,06,28,10,01,20.20
2008,06,28,10,02,20.30
2008,06,28,10,03,20.30
2008,06,28,10,04,20.30
2008,06,28,10,05,20.30
2008,06,28,10,06,20.40
2008,06,28,10,07,20.40
2008,06,28,10,08,20.40
2008,06,28,10,09,20.50
2008,06,28,10,10,20.50
2008,06,28,10,11,20.60
2008,06,28,10,12,20.60
2008,06,28,10,13,20.60
2008,06,28,10,14,20.60
2008,06,28,10,15,20.70
2008,06,28,10,16,20.70
2008,06,28,10,17,20.70
2008,06,28,10,18,20.80
2008,06,28,10,19,20.80
2008,06,28,10,20,20.80
2008,06,28,10,21,20.90
2008,06,28,10,22,20.80
2008,06,28,10,23,20.90
2008,06,28,10,24,21.00
2008,06,28,10,25,21.00
2008,06,28,10,26,21.00
2008,06,28,10,27,21.10
2008,06,28,10,28,21.10
2008,06,28,10,29,21.10
2008,06,28,10,30,21.10
2008,06,28,10,31,21.10
2008,06,28,10,32,21.10
2008,06,28,10,33,21.10
2008,06,28,10,34,21.10
2008,06,28,10,35,21.20
2008,06,28,10,36,21.10
2008,06,28,10,37,21.10
2008,06,28,10,38,21.10
2008,06,28,10,39,21.00
2008,06,28,10,40,21.00
2008,06,28,10,41,20.90
2008,06,28,10,42,21.00
2008,06,28,10,43,21.00
2008,06,28,10,44,21.10
2008,06,28,10,45,21.20
2008,06,28,10,46,21.20
2008,06,28,10,47,21.30
2008,06,28,10,48,21.40
2008,06,28,10,49,21.40
2008,06,28,10,50,21.50
2008,06,28,10,51,21.50
2008,06,28,10,52,21.60
2008,06,28,10,53,21.60
2008,06,28,10,54,21.70
2008,06,28,10,55,21.70
2008,06,28,10,56,21.70
2008,06,28,10,57,21.80
2008,06,28,10,58,21.80
2008,06,28,10,59,21.80
2008,06,28,11,00,21.80
2008,06,28,11,01,21.80
2008,06,28,11,02,21.80
2008,06,28,11,03,21.80
2008,06,28,11,04,21.80
2008,06,28,11,05,21.80
2008,06,28,11,06,21.80
2008,06,28,11,07,21.90
2008,06,28,11,08,21.90
2008,06,28,11,09,21.90
2008,06,28,11,10,22.00
2008,06,28,11,11,22.00
2008,06,28,11,12,22.00
2008,06,28,11,13,22.10
2008,06,28,11,14,22.10
2008,06,28,11,15,22.10
2008,06,28,11,16,22.10
2008,06,28,11,17,22.20
2008,06,28,11,18,22.20
2008,06,28,11,19,22.20
2008,06,28,11,20,22.20
2008,06,28,11,21,22.30
2008,06,28,11,22,22.40
2008,06,28,11,23,22.50
2008,06,28,11,24,22.50
2008,06,28,11,25,22.60
2008,06,28,11,26,22.70
2008,06,28,11,27,22.70
2008,06,28,11,28,22.80
2008,06,28,11,29,22.80
2008,06,28,11,30,22.70
2008,06,28,11,31,22.70
2008,06,28,11,32,22.70
2008,06,28,11,33,22.70
2008,06,28,11,34,22.70
2008,06,28,11,35,22.70
2008,06,28,11,36,22.60
2008,06,28,11,37,22.40
2008,06,28,11,38,22.40
2008,06,28,11,39,22.30
2008,06,28,11,40,22.30
2008,06,28,11,41,22.30
2008,06,28,11,42,22.20
2008,06,28,11,43,22.20
2008,06,28,11,44,22.10
2008,06,28,11,45,22.20
2008,06,28,11,46,22.20
2008,06,28,11,47,22.30
2008,06,28,11,48,22.30
2008,06,28,11,49,22.40
2008,06,28,11,50,22.40
2008,06,28,11,51,22.40
2008,06,28,11,52,22.40
2008,06,28,11,53,22.40
2008,06,28,11,54,22.50
2008,06,28,11,55,22.50
2008,06,28,11,56,22.40
2008,06,28,11,57,22.40
2008,06,28,11,58,22.40
2008,06,28,11,59,22.50
2008,06,28,12,00,22.50
2008,06,28,12,01,22.60
2008,06,28,12,02,22.60
2008,06,28,12,03,22.70
2008,06,28,12,04,22.80
2008,06,28,12,05,22.90
2008,06,28,12,06,22.90
2008,06,28,12,07,23.00
2008,06,28,12,08,23.10
2008,06,28,12,09,23.20
2008,06,28,12,10,23.30
2008,06,28,12,11,23.40
2008,06,28,12,12,23.40
2008,06,28,12,13,23.50
2008,06,28,12,14,23.60
2008,06,28,12,15,23.60
2008,06,28,12,16,23.70
2008,06,28,12,17,23.80
2008,06,28,12,18,23.90
2008,06,28,12,19,23.90
2008,06,28,12,20,23.90
2008,06,28,12,21,23.90
2008,06,28,12,22,23.90
2008,06,28,12,23,23.90
2008,06,28,12,24,23.90
2008,06,28,12,25,23.80
2008,06,28,12,26,23.90
2008,06,28,12,27,23.90
2008,06,28,12,28,24.00
2008,06,28,12,29,24.00
2008,06,28,12,30,24.10
2008,06,28,12,31,24.10
2008,06,28,12,32,24.20
2008,06,28,12,33,24.30
2008,06,28,12,34,24.30
2008,06,28,12,35,24.40
2008,06,28,12,36,24.40
2008,06,28,12,37,24.50
2008,06,28,12,38,24.50
2008,06,28,12,39,24.60
2008,06,28,12,40,24.60
2008,06,28,12,41,24.70
2008,06,28,12,42,24.70
2008,06,28,12,43,24.60
2008,06,28,12,44,24.60
2008,06,28,12,45,24.70
2008,06,28,12,46,24.70
2008,06,28,12,47,24.70
2008,06,28,12,48,24.80
2008,06,28,12,49,24.80
2008,06,28,12,50,24.90
2008,06,28,12,51,24.80
2008,06,28,12,52,24.80
2008,06,28,12,53,24.80
2008,06,28,12,54,24.80
2008,06,28,12,55,24.70
2008,06,28,12,56,24.70
2008,06,28,12,57,24.60
2008,06,28,12,58,24.70
2008,06,28,12,59,24.70
2008,06,28,13,00,24.60
2008,06,28,13,01,24.60
2008,06,28,13,02,24.60
2008,06,28,13,03,24.70
2008,06,28,13,04,24.70
2008,06,28,13,05,24.70
2008,06,28,13,06,24.80
2008,06,28,13,07,24.80
2008,06,28,13,08,24.80
2008,06,28,13,09,24.80
2008,06,28,13,10,24.70
2008,06,28,13,11,24.70
2008,06,28,13,12,24.70
2008,06,28,13,13,24.70
2008,06,28,13,14,24.70
2008,06,28,13,15,24.70
2008,06,28,13,16,24.70
2008,06,28,13,17,24.70
2008,06,28,13,18,24.70
2008,06,28,13,19,24.70
2008,06,28,13,20,24.60
2008,06,28,13,21,24.60
2008,06,28,13,22,24.60
2008,06,28,13,23,24.60
2008,06,28,13,24,24.60
2008,06,28,13,25,24.70
2008,06,28,13,26,24.70
2008,06,28,13,27,24.80
2008,06,28,13,28,24.80
2008,06,28,13,29,24.70
2008,06,28,13,30,24.60
2008,06,28,13,31,24.60
2008,06,28,13,32,24.60
2008,06,28,13,33,24.70
2008,06,28,13,34,24.70
2008,06,28,13,35,24.70
2008,06,28,13,36,24.70
2008,06,28,13,37,24.60
2008,06,28,13,38,24.50
2008,06,28,13,39,24.40
2008,06,28,13,40,24.40
2008,06,28,13,41,24.40
2008,06,28,13,42,24.40
2008,06,28,13,43,24.50
2008,06,28,13,44,24.60
2008,06,28,13,45,24.60
2008,06,28,13,46,24.70
2008,06,28,13,47,24.80
2008,06,28,13,48,24.80
2008,06,28,13,49,24.80
2008,06,28,13,50,24.80
2008,06,28,13,51,24.70
2008,06,28,13,52,24.70
2008,06,28,13,53,24.70
2008,06,28,13,54,24.80
2008,06,28,13,55,24.80
2008,06,28,13,56,24.90
2008,06,28,13,57,24.90
2008,06,28,13,58,24.90
2008,06,28,13,59,24.90
2008,06,28,14,00,25.00
2008,06,28,14,01,25.10
2008,06,28,14,02,25.10
2008,06,28,14,03,25.20
2008,06,28,14,04,25.30
2008,06,28,14,05,25.50
2008,06,28,14,06,25.60
2008,06,28,14,07,25.70
2008,06,28,14,08,25.90
2008,06,28,14,09,25.90
2008,06,28,14,10,26.10
2008,06,28,14,11,26.20
2008,06,28,14,12,26.30
2008,06,28,14,13,26.50
2008,06,28,14,14,26.60
2008,06,28,14,15,26.70
2008,06,28,14,16,26.70
2008,06,28,14,17,26.80
2008,06,28,14,18,26.80
2008,06,28,14,19,26.80
2008,06,28,14,20,26.90
2008,06,28,14,21,27.00
2008,06,28,14,22,27.10
2008,06,28,14,23,27.20
2008,06,28,14,24,27.30
2008,06,28,14,25,27.40
2008,06,28,14,26,27.50
2008,06,28,14,27,27.60
2008,06,28,14,28,27.70
2008,06,28,14,29,27.80
2008,06,28,14,30,27.80
2008,06,28,14,31,27.80
2008,06,28,14,32,27.80
2008,06,28,14,33,27.80
2008,06,28,14,34,27.80
2008,06,28,14,35,27.80
2008,06,28,14,36,27.80
2008,06,28,14,37,27.80
2008,06,28,14,38,27.80
2008,06,28,14,39,27.70
2008,06,28,14,40,27.70
2008,06,28,14,41,27.60
2008,06,28,14,42,27.60
2008,06,28,14,43,27.50
2008,06,28,14,44,27.50
2008,06,28,14,45,27.40
2008,06,28,14,46,27.40
2008,06,28,14,47,27.40
2008,06,28,14,48,27.40
2008,06,28,14,49,27.40
2008,06,28,14,50,27.40
2008,06,28,14,51,27.30
2008,06,28,14,52,27.30
2008,06,28,14,53,27.30
2008,06,28,14,54,27.30
2008,06,28,14,55,27.30
2008,06,28,14,56,27.40
2008,06,28,14,57,27.40
2008,06,28,14,58,27.40
2008,06,28,14,59,27.40
2008,06,28,15,00,27.40
2008,06,28,15,01,27.40
2008,06,28,15,02,27.40
2008,06,28,15,03,27.50
2008,06,28,15,04,27.50
2008,06,28,15,05,27.40
2008,06,28,15,06,27.50
2008,06,28,15,07,27.50
2008,06,28,15,08,27.50
2008,06,28,15,09,27.50
2008,06,28,15,10,27.60
2008,06,28,15,11,27.50
2008,06,28,15,12,27.40
2008,06,28,15,13,27.40
2008,06,28,15,14,27.30
2008,06,28,15,15,27.20
2008,06,28,15,16,27.10
2008,06,28,15,17,27.10
2008,06,28,15,18,27.10
2008,06,28,15,19,27.00
2008,06,28,15,20,26.90
2008,06,28,15,21,26.80
2008,06,28,15,22,26.70
2008,06,28,15,23,26.60
2008,06,28,15,24,26.40
2008,06,28,15,25,26.40
2008,06,28,15,26,26.40
2008,06,28,15,27,26.40
2008,06,28,15,28,26.40
2008,06,28,15,29,26.40
2008,06,28,15,30,26.40
2008,06,28,15,31,26.40
2008,06,28,15,32,26.40
2008,06,28,15,33,26.40
2008,06,28,15,34,26.50
2008,06,28,15,35,26.60
2008,06,28,15,36,26.60
2008,06,28,15,37,26.70
2008,06,28,15,38,26.60
2008,06,28,15,39,26.60
2008,06,28,15,40,26.50
2008,06,28,15,41,26.50
2008,06,28,15,42,26.40
2008,06,28,15,43,26.30
2008,06,28,15,44,26.30
2008,06,28,15,45,26.30
2008,06,28,15,46,26.30
2008,06,28,15,47,26.30
2008,06,28,15,48,26.30
2008,06,28,15,49,26.30
2008,06,28,15,50,26.30
2008,06,28,15,51,26.40
2008,06,28,15,52,26.40
2008,06,28,15,53,26.40
2008,06,28,15,54,26.50
2008,06,28,15,55,26.50
2008,06,28,15,56,26.60
2008,06,28,15,57,26.60
2008,06,28,15,58,26.60
2008,06,28,15,59,26.60
2008,06,28,16,00,26.60
2008,06,28,16,01,26.60
2008,06,28,16,02,26.60
2008,06,28,16,03,26.70
2008,06,28,16,04,26.70
2008,06,28,16,05,26.70
2008,06,28,16,06,26.80
2008,06,28,16,07,26.80
2008,06,28,16,08,26.80
2008,06,28,16,09,26.80
2008,06,28,16,10,26.80
2008,06,28,16,11,26.80
2008,06,28,16,12,26.80
2008,06,28,16,13,26.80
2008,06,28,16,14,26.70
2008,06,28,16,15,26.70
2008,06,28,16,16,26.70
2008,06,28,16,17,26.70
2008,06,28,16,18,26.60
2008,06,28,16,19,26.50
2008,06,28,16,20,26.50
2008,06,28,16,21,26.50
2008,06,28,16,22,26.50
2008,06,28,16,23,26.50
2008,06,28,16,24,26.50
2008,06,28,16,25,26.40
2008,06,28,16,26,26.50
2008,06,28,16,27,26.50
2008,06,28,16,28,26.50
2008,06,28,16,29,26.60
2008,06,28,16,30,26.60
2008,06,28,16,31,26.50
2008,06,28,16,32,26.40
2008,06,28,16,33,26.40
2008,06,28,16,34,26.40
2008,06,28,16,35,26.50
2008,06,28,16,36,26.50
2008,06,28,16,37,26.60
2008,06,28,16,38,26.70
2008,06,28,16,39,26.80
2008,06,28,16,40,26.80
2008,06,28,16,41,26.90
2008,06,28,16,42,26.90
2008,06,28,16,43,26.90
2008,06,28,16,44,26.90
2008,06,28,16,45,26.90
2008,06,28,16,46,27.00
2008,06,28,16,47,27.00
2008,06,28,16,48,27.10
2008,06,28,16,49,27.10
2008,06,28,16,50,27.20
2008,06,28,16,51,27.20
2008,06,28,16,52,27.30
2008,06,28,16,53,27.30
2008,06,28,16,54,27.30
2008,06,28,16,55,27.30
2008,06,28,16,56,27.20
2008,06,28,16,57,27.20
2008,06,28,16,58,27.20
2008,06,28,16,59,27.20
2008,06,28,17,00,27.20
2008,06,28,17,01,27.20
2008,06,28,17,02,27.30
2008,06,28,17,03,27.30
2008,06,28,17,04,27.30
2008,06,28,17,05,27.30
2008,06,28,17,06,27.40
2008,06,28,17,07,27.40
2008,06,28,17,08,27.40
2008,06,28,17,09,27.40
2008,06,28,17,10,27.40
2008,06,28,17,11,27.40
2008,06,28,17,12,27.40
2008,06,28,17,13,27.50
2008,06,28,17,14,27.50
2008,06,28,17,15,27.50
2008,06,28,17,16,27.60
2008,06,28,17,17,27.60
2008,06,28,17,18,27.60
2008,06,28,17,19,27.70